Kapolei, HI

2:27 PM HST on February 06, 2016 (GMT -1000)
Kalaeloa (John Rodgers Field)

Weather History for PHJR - December, 2012

Change the Weather History Date:

Monday, December 3, 2012

  Actual Average (PHNL) Record (PHNL)
Temperature  
Mean Temperature 72 °F 76 °F  
Max Temperature 78 °F 82 °F 87 °F (1983)
Min Temperature 66 °F 70 °F 61 °F (1980)
Degree Days  
Heating Degree Days 0 0  
Month to date heating degree days 0  
Since 1 July heating degree days 0  
Cooling Degree Days 7 11  
Month to date cooling degree days 33  
Year to date cooling degree days 4359  
Growing Degree Days 22 (Base 50)    
Moisture  
Dew Point 70 °F    
Average Humidity 89    
Maximum Humidity 100    
Minimum Humidity 78    
Precipitation  
Precipitation 0.00 in 0.08 in 3.76 in (1950)
Month to date precipitation 0.23  
Year to date precipitation 14.09  
Sea Level Pressure  
Sea Level Pressure 29.97 in    
Wind  
Wind Speed 8 mph (WSW)    
Max Wind Speed 15 mph    
Max Gust Speed -    
Visibility 9 miles    
Events      
T = Trace of Precipitation, MM = Missing Value Source: NWS Daily Summary

Daily Weather History Graph

Daily Weather History Graph

Search for Another Location

Airport or City:

Trip Planner

Search our weather history database for the weather conditions in past years. The results will help you decide how hot, cold, wet, or windy it might be!

Date:

Astronomy

Dec. 03, 2012 Rise Set
Actual Time 6:55 AM HST 5:49 PM HST
Civil Twilight 6:31 AM HST 6:13 PM HST
Nautical Twilight 6:03 AM HST 6:41 PM HST
Astronomical Twilight 5:36 AM HST 7:08 PM HST
Moon 10:26 PM HST (12/3) 10:42 AM HST (12/3)
Length of Visible Light 11h 42m
Length of Day
10h 54m
Waning Gibbous, 76% of the Moon is Illuminated
Dec 3
Waning Gibbous
Dec 6
Last Quarter
Dec 12
New
Dec 19
First Quarter
Dec 28
Full

Hourly Weather History & Observations

Time (HST) Temp. Dew Point Humidity Pressure Visibility Wind Dir Wind Speed Gust Speed Precip Events Conditions
12:53 AM 73.0 °F 72.0 °F 96% 30.00 in 6.0 mi SSW 8.1 mph - N/A   Clear
1:53 AM 73.0 °F 72.0 °F 96% 29.99 in 6.0 mi SW 5.8 mph - N/A   Partly Cloudy
2:53 AM 73.0 °F 72.0 °F 96% 29.96 in 7.0 mi SW 6.9 mph - N/A   Mostly Cloudy
3:09 AM 73.4 °F 71.6 °F 94% 29.94 in 7.0 mi SW 6.9 mph - N/A   Scattered Clouds
3:53 AM 73.0 °F 72.0 °F 96% 29.96 in 7.0 mi WSW 8.1 mph - N/A   Partly Cloudy
4:19 AM - - N/A% 29.94 in 7.0 mi SW 8.1 mph - N/A   Mostly Cloudy
4:32 AM - - N/A% 29.93 in 7.0 mi SW 8.1 mph - N/A   Mostly Cloudy
4:35 AM - - N/A% 29.93 in 7.0 mi SW 9.2 mph - N/A   Mostly Cloudy
4:47 AM - - N/A% 29.93 in 8.0 mi SW 8.1 mph - N/A   Scattered Clouds
4:53 AM - - N/A% 29.96 in 8.0 mi SW 9.2 mph - N/A   Scattered Clouds
5:53 AM - - N/A% 29.96 in 8.0 mi SW 9.2 mph - N/A   Mostly Cloudy
6:06 AM - - N/A% 29.93 in 8.0 mi SW 9.2 mph - N/A   Scattered Clouds
6:53 AM - - N/A% 29.98 in 9.0 mi SW 8.1 mph - N/A   Partly Cloudy
7:53 AM - - N/A% 29.99 in 9.0 mi SW 9.2 mph - N/A   Clear
8:53 AM 75.9 °F 72.0 °F 87% 30.00 in 10.0 mi WSW 8.1 mph - N/A   Clear
9:53 AM 78.1 °F 73.0 °F 84% 30.01 in 10.0 mi SW 8.1 mph - N/A   Partly Cloudy
10:53 AM 75.9 °F 72.0 °F 87% 30.01 in 10.0 mi SW 9.2 mph - N/A   Mostly Cloudy
11:44 AM 78.8 °F 71.6 °F 78% 29.98 in 10.0 mi SW 15.0 mph - N/A   Mostly Cloudy
11:53 AM 78.1 °F 71.1 °F 79% 29.99 in 10.0 mi SW 12.7 mph - N/A   Mostly Cloudy
12:07 PM 77.0 °F 71.6 °F 83% 29.97 in 10.0 mi SW 13.8 mph - N/A   Scattered Clouds
12:53 PM 77.0 °F 71.1 °F 82% 29.97 in 10.0 mi SW 10.4 mph - N/A   Clear
1:53 PM 77.0 °F 71.1 °F 82% 29.95 in 10.0 mi SW 10.4 mph - N/A   Clear
2:53 PM 77.0 °F 71.1 °F 82% 29.95 in 10.0 mi WSW 11.5 mph - N/A   Partly Cloudy
3:22 PM 75.2 °F 71.6 °F 89% 29.94 in 10.0 mi WNW 9.2 mph - N/A   Mostly Cloudy
3:53 PM 75.0 °F 70.0 °F 84% 29.96 in 10.0 mi West 11.5 mph - N/A   Mostly Cloudy
4:36 PM 75.2 °F 69.8 °F 83% 29.95 in 10.0 mi WSW 10.4 mph - N/A   Overcast
4:46 PM 75.2 °F 69.8 °F 83% 29.95 in 10.0 mi WNW 9.2 mph - N/A   Mostly Cloudy
4:53 PM 75.0 °F 70.0 °F 84% 29.97 in 10.0 mi WNW 8.1 mph - N/A   Mostly Cloudy
5:26 PM 73.4 °F 69.8 °F 88% 29.96 in 10.0 mi NW 5.8 mph - N/A   Scattered Clouds
5:53 PM 72.0 °F 69.1 °F 91% 29.98 in 10.0 mi WNW 5.8 mph - N/A   Clear
6:53 PM 71.1 °F 69.1 °F 93% 30.00 in 10.0 mi Calm Calm - N/A   Clear
7:53 PM 70.0 °F 68.0 °F 93% 30.02 in 10.0 mi Calm Calm - N/A   Clear
8:53 PM 68.0 °F 66.9 °F 96% 30.03 in 10.0 mi Calm Calm - N/A   Clear
9:53 PM 66.9 °F 66.9 °F 100% 30.04 in 10.0 mi Calm Calm - N/A   Mostly Cloudy
10:53 PM 68.0 °F 66.9 °F 96% 30.04 in 10.0 mi Calm Calm - N/A   Partly Cloudy
11:53 PM 66.0 °F 66.0 °F 100% 30.03 in 10.0 mi Calm Calm - N/A   Clear